Flag for Canada Weather past 2 weeks in Yellowknife, Northwest Territories, Canada

Now
12 °F

Partly sunny.


Feels Like: 12 °F
Forecast: 0 / 11 °F
Wind: No wind

Location: Yellowknife

Current Time: Mar 5, 2015 at 12:32:11 PM

Latest Report: Mar 5, 2015 at 12:00 PM


Visibility: 15 mi

Pressure: 29.87 "Hg

Humidity: 73%

Dew point: 5 °F

Location of YellowknifeLocation

Historic Weather in Yellowknife — Graph

°F

Yellowknife temperature yesterday

Maximum temperature yesterday: 0 °F (at 1:00 PM)
Minimum temperature yesterday: -24 °F (at 4:00 AM)
Average temperature yesterday: -11 °F

Past Weeks' High & Low Weather Summary

 TemperatureHumidityPressure
High23 °F (Feb 27, 9:00 PM)93% (Feb 27, 8:00 PM)30.80 "Hg (Feb 27, 8:00 PM)
Low-29 °F (Feb 21, 5:00 AM)47% (Feb 28, 3:00 PM)29.77 "Hg (Mar 4, 11:00 PM)
Average-4 °F73%30.29 "Hg
* Reported Feb 18 11:00 AM — Mar 5 11:00 AM, Yellowknife, Weather by CustomWeather, © 2015

Note: Actual official high and low records may vary slightly from our data, if they occured in-between our weather recording intervals... More about our weather records

Advertising

Yellowknife weather history for previous 24 hours

 ConditionsComfort  
Time TempWeatherWind HumidityBarometerVisibility
11:00 AM
Thu, Mar 5
10 °FOvercast.5 mph79%29.86 "Hg15 mi
10:00 AM7 °FBroken clouds.3 mph85%29.88 "Hg15 mi
9:00 AM1 °FBroken clouds.5 mph92%29.86 "Hg15 mi
8:00 AM0 °FMostly cloudy.8 mph84%29.85 "Hg15 mi
7:00 AM-2 °FPassing clouds.9 mph84%29.85 "Hg15 mi
6:00 AM-2 °FPassing clouds.7 mph84%29.83 "Hg15 mi
5:00 AM1 °FPassing clouds.10 mph85%29.81 "Hg15 mi
4:00 AM3 °FPartly cloudy.12 mph85%29.80 "Hg15 mi
3:00 AM3 °FLight snow. Passing clouds.12 mph85%29.79 "Hg15 mi
2:00 AM1 °FLight snow. Partly cloudy.12 mph78%29.79 "Hg15 mi
1:00 AM0 °FLight snow. Passing clouds.8 mph78%29.78 "Hg15 mi
12:00 AM0 °FLight snow. Passing clouds.3 mph78%29.78 "Hg15 mi
11:00 PM
Wed, Mar 4
0 °FLight snow. Mostly cloudy.3 mph78%29.77 "Hg15 mi
10:00 PM-2 °FLight snow. Mostly cloudy.5 mph77%29.78 "Hg15 mi
9:00 PM-2 °FLight snow. Passing clouds.5 mph77%29.80 "Hg5 mi
8:00 PM-2 °FLight snow. Mostly cloudy.6 mph71%29.83 "Hg10 mi
7:00 PM0 °FMostly cloudy.7 mph65%29.84 "Hg15 mi
6:00 PM0 °FMostly cloudy.10 mph60%29.87 "Hg15 mi
5:00 PM0 °FBroken clouds.14 mph60%29.90 "Hg15 mi
3:00 PM-2 °FPartly sunny.7 mph59%29.92 "Hg15 mi
2:00 PM0 °FPartly sunny.6 mph54%29.95 "Hg15 mi
1:00 PM0 °FPassing clouds.5 mph54%29.97 "Hg15 mi
12:00 PM-2 °FPassing clouds.9 mph54%30.00 "Hg15 mi
Weather by CustomWeather, © 2015

See weather overviewHow to use our weather pages